• In Uzbekistan
  • List of Countries
  • For 7 days
  • Water Temperature
  • Satellite Maps
  • Weather Map
  • Weather Widgets
  • user-avatar
    Login

    Hourly Weather Rozdolivka

    Today, 28 May, Monday

    Time Temperature Precipitation Wind Pressure Humidity
    00:00 +13°C° 0 mm 2 mps 760 mmHg 70%
    01:00 +13°C° 0 mm 2 mps 760 mmHg 71%
    02:00 +12°C° 0 mm 2 mps 760 mmHg 71%
    03:00 +12°C° 0 mm 2 mps 760 mmHg 71%
    04:00 +12°C° 0 mm 2 mps 760 mmHg 71%
    05:00 +12°C° 0 mm 2 mps 760 mmHg 71%
    06:00 +12°C° 0 mm 2 mps 760 mmHg 72%
    07:00 +14°C° 0 mm 3 mps 760 mmHg 65%
    08:00 +17°C° 0 mm 3 mps 760 mmHg 58%
    09:00 +19°C° 0 mm 4 mps 760 mmHg 51%
    10:00 +20°C° 0 mm 4 mps 760 mmHg 48%
    11:00 +21°C° 0 mm 4 mps 760 mmHg 45%
    12:00 +22°C° 0 mm 4 mps 760 mmHg 43%
    13:00 +23°C° 0 mm 4 mps 759 mmHg 43%
    14:00 +25°C° 0 mm 4 mps 759 mmHg 44%
    15:00 +25°C° 0 mm 4 mps 759 mmHg 44%
    16:00 +25°C° 0 mm 4 mps 759 mmHg 48%
    17:00 +25°C° 0 mm 4 mps 759 mmHg 52%
    18:00 +23°C° 0 mm 4 mps 759 mmHg 56%
    19:00 +22°C° 0 mm 4 mps 759 mmHg 62%
    20:00 +20°C° 0 mm 3 mps 759 mmHg 69%
    21:00 +18°C° 0 mm 3 mps 759 mmHg 75%
    22:00 +18°C° 0 mm 4 mps 760 mmHg 77%
    23:00 +17°C° 0 mm 4 mps 760 mmHg 80%

    Tomorrow, 29 May, Tuesday

    Time Temperature Precipitation Wind Pressure Humidity
    00:00 +16°C° 0 mm 5 mps 760 mmHg 82%
    01:00 +15°C° 0 mm 5 mps 761 mmHg 78%
    02:00 +14°C° 0 mm 5 mps 761 mmHg 75%
    03:00 +13°C° 0 mm 4 mps 761 mmHg 71%
    04:00 +13°C° 0 mm 5 mps 762 mmHg 72%
    05:00 +13°C° 0 mm 5 mps 762 mmHg 73%
    06:00 +12°C° 0 mm 5 mps 762 mmHg 74%
    07:00 +14°C° 0 mm 6 mps 762 mmHg 67%
    08:00 +15°C° 0 mm 6 mps 762 mmHg 61%
    09:00 +17°C° 0 mm 7 mps 762 mmHg 54%
    10:00 +17°C° 0 mm 7 mps 762 mmHg 52%
    11:00 +18°C° 0 mm 7 mps 762 mmHg 49%
    12:00 +20°C° 0 mm 7 mps 762 mmHg 46%
    13:00 +20°C° 0 mm 7 mps 762 mmHg 47%
    14:00 +21°C° 0 mm 6 mps 761 mmHg 47%
    15:00 +21°C° 0 mm 6 mps 761 mmHg 48%
    16:00 +21°C° 0 mm 6 mps 761 mmHg 50%
    17:00 +20°C° 0 mm 6 mps 761 mmHg 52%
    18:00 +20°C° 0 mm 5 mps 760 mmHg 54%
    19:00 +17°C° 0 mm 5 mps 760 mmHg 58%
    20:00 +15°C° 0 mm 4 mps 760 mmHg 62%
    21:00 +14°C° 0 mm 3 mps 760 mmHg 66%
    22:00 +13°C° 0 mm 3 mps 760 mmHg 67%
    23:00 +12°C° 0 mm 3 mps 760 mmHg 68%

    Day after tomorrow, 30 May, Wednesday

    Time Temperature Precipitation Wind Pressure Humidity
    00:00 +12°C° 0 mm 3 mps 760 mmHg 69%
    01:00 +11°C° 0 mm 3 mps 760 mmHg 70%
    02:00 +12°C° 0 mm 2 mps 760 mmHg 70%
    03:00 +10°C° 0 mm 2 mps 760 mmHg 71%
    04:00 +10°C° 0 mm 2 mps 759 mmHg 71%
    05:00 +12°C° 0 mm 2 mps 759 mmHg 71%
    06:00 +12°C° 0 mm 2 mps 759 mmHg 71%
    07:00 +14°C° 0 mm 2 mps 759 mmHg 63%
    08:00 +16°C° 0 mm 3 mps 759 mmHg 55%
    09:00 +18°C° 0 mm 3 mps 759 mmHg 47%
    10:00 +19°C° 0 mm 3 mps 758 mmHg 44%
    11:00 +20°C° 0 mm 3 mps 758 mmHg 41%
    12:00 +21°C° 0 mm 3 mps 758 mmHg 38%
    13:00 +22°C° 0 mm 3 mps 757 mmHg 38%
    14:00 +24°C° 0 mm 3 mps 757 mmHg 37%
    15:00 +24°C° 0 mm 3 mps 756 mmHg 37%
    16:00 +24°C° 0 mm 2 mps 756 mmHg 39%
    17:00 +24°C° 0 mm 2 mps 755 mmHg 41%
    18:00 +24°C° 0 mm 2 mps 755 mmHg 44%
    19:00 +21°C° 0 mm 2 mps 755 mmHg 48%
    20:00 +20°C° 0 mm 1 mps 754 mmHg 52%
    21:00 +18°C° 0 mm 1 mps 754 mmHg 56%
    22:00 +16°C° 0 mm 1 mps 754 mmHg 58%
    23:00 +15°C° 0 mm 1 mps 754 mmHg 59%

    31 May, Thursday

    Time Temperature Precipitation Wind Pressure Humidity
    00:00 +14°C° 0 mm 0 mps 753 mmHg 61%
    01:00 +13°C° 0 mm 0 mps 753 mmHg 62%
    02:00 +13°C° 0 mm 0 mps 753 mmHg 62%
    03:00 +13°C° 0 mm 0 mps 752 mmHg 63%
    04:00 +13°C° 0 mm 0 mps 752 mmHg 64%
    05:00 +14°C° 0 mm 0 mps 752 mmHg 64%
    06:00 +15°C° 0 mm 0 mps 752 mmHg 64%
    07:00 +18°C° 0 mm 1 mps 752 mmHg 59%
    08:00 +20°C° 0 mm 1 mps 751 mmHg 53%
    09:00 +22°C° 0 mm 1 mps 751 mmHg 47%
    10:00 +24°C° 0 mm 1 mps 751 mmHg 44%
    11:00 +25°C° 0 mm 1 mps 750 mmHg 41%
    12:00 +26°C° 0 mm 1 mps 750 mmHg 38%
    13:00 +27°C° 0 mm 1 mps 750 mmHg 37%
    14:00 +27°C° 0 mm 1 mps 749 mmHg 36%
    15:00 +28°C° 0 mm 1 mps 749 mmHg 34%
    16:00 +28°C° 0 mm 1 mps 748 mmHg 36%
    17:00 +27°C° 0 mm 1 mps 748 mmHg 38%
    18:00 +27°C° 0 mm 1 mps 748 mmHg 40%
    19:00 +25°C° 0 mm 1 mps 748 mmHg 44%
    20:00 +23°C° 0 mm 1 mps 748 mmHg 49%
    21:00 +19°C° 0 mm 0 mps 748 mmHg 53%
    22:00 +18°C° 0 mm 0 mps 748 mmHg 55%
    23:00 +18°C° 0 mm 0 mps 748 mmHg 57%

    1 June, Friday

    Time Temperature Precipitation Wind Pressure Humidity
    00:00 +17°C° 0 mm 0 mps 747 mmHg 59%
    01:00 +17°C° 0 mm 0 mps 747 mmHg 61%
    02:00 +16°C° 0 mm 0 mps 747 mmHg 63%
    03:00 +16°C° 0 mm 0 mps 747 mmHg 65%
    04:00 +16°C° 0 mm 0 mps 747 mmHg 66%
    05:00 +17°C° 0 mm 0 mps 747 mmHg 68%
    06:00 +19°C° 0 mm 1 mps 747 mmHg 69%
    07:00 +21°C° 0 mm 1 mps 747 mmHg 65%
    08:00 +22°C° 0 mm 1 mps 747 mmHg 61%
    09:00 +24°C° 0 mm 2 mps 748 mmHg 56%
    10:00 +25°C° 0.3 mm 2 mps 748 mmHg 55%
    11:00 +25°C° 0.3 mm 3 mps 748 mmHg 53%
    12:00 +26°C° 0.3 mm 3 mps 748 mmHg 52%
    13:00 +25°C° 0.2 mm 4 mps 748 mmHg 57%
    14:00 +23°C° 0.2 mm 5 mps 748 mmHg 61%
    15:00 +22°C° 0.2 mm 6 mps 748 mmHg 66%
    16:00 +21°C° 0.5 mm 6 mps 748 mmHg 69%
    17:00 +20°C° 0.5 mm 7 mps 748 mmHg 73%
    18:00 +18°C° 0.5 mm 7 mps 748 mmHg 76%
    19:00 +17°C° 0.2 mm 7 mps 748 mmHg 79%
    20:00 +16°C° 0.2 mm 7 mps 748 mmHg 82%
    21:00 +14°C° 0.2 mm 7 mps 749 mmHg 85%
    22:00 +14°C° 0.2 mm 7 mps 749 mmHg 86%
    23:00 +12°C° 0.2 mm 7 mps 749 mmHg 86%

    2 June, Saturday

    Time Temperature Precipitation Wind Pressure Humidity
    00:00 +11°C° 0.2 mm 7 mps 749 mmHg 86%
    01:00 +11°C° 0.2 mm 6 mps 749 mmHg 86%
    02:00 +10°C° 0.2 mm 6 mps 749 mmHg 86%
    03:00 +10°C° 0.2 mm 6 mps 749 mmHg 86%
    04:00 +10°C° 0.3 mm 6 mps 749 mmHg 86%
    05:00 +10°C° 0.3 mm 6 mps 750 mmHg 85%
    06:00 +10°C° 0.3 mm 6 mps 750 mmHg 85%
    07:00 +10°C° 0.5 mm 6 mps 750 mmHg 86%
    08:00 +10°C° 0.5 mm 7 mps 750 mmHg 86%
    09:00 +11°C° 0.5 mm 7 mps 751 mmHg 86%
    10:00 +12°C° 0.5 mm 7 mps 751 mmHg 85%
    11:00 +12°C° 0.5 mm 7 mps 751 mmHg 83%
    12:00 +14°C° 0.5 mm 7 mps 751 mmHg 82%
    13:00 +15°C° 0.2 mm 7 mps 751 mmHg 79%
    14:00 +17°C° 0.2 mm 7 mps 751 mmHg 75%
    15:00 +18°C° 0.2 mm 7 mps 751 mmHg 72%
    16:00 +18°C° 0 mm 7 mps 751 mmHg 71%
    17:00 +19°C° 0 mm 6 mps 752 mmHg 71%
    18:00 +19°C° 0 mm 6 mps 752 mmHg 71%
    19:00 +17°C° 0 mm 6 mps 752 mmHg 74%
    20:00 +15°C° 0 mm 5 mps 752 mmHg 76%
    21:00 +14°C° 0 mm 4 mps 753 mmHg 79%
    22:00 +14°C° 0 mm 4 mps 753 mmHg 80%
    23:00 +13°C° 0 mm 4 mps 753 mmHg 82%
    Show more